Regional Weather Roundup
Issued by NWS Boston, MA

Home | Current Version | Previous Version | Text Only | Print | Product List | Glossary On
Versions: 1 2 3 4 5 6 7 8 9 10 11 12 13 14 15 16 17 18 19 20 21 22 23 24 25 26 27 28 29 30 31 32 33 34 35 36 37 38 39 40 41 42 43 44 45 46 47 48 49 50
000
ASUS41 KBOX 300010
RWRBOX

REGIONAL WEATHER ROUNDUP
NATIONAL WEATHER SERVICE TAUNTON MA
800 PM EDT SUN MAR 29 2015

NOTE:  "FAIR" INDICATES FEW OR NO CLOUDS BELOW 12,000 FEET WITH NO
SIGNIFICANT WEATHER AND/OR OBSTRUCTIONS TO VISIBILITY.  THE FOLLOWING
OBSERVATION LOCATIONS DO NOT REPORT PRESENT WEATHER...PROVINCETOWN...
SMITHFIELD...BLOCK ISLAND...KEENE...AND OXFORD.

MAZALL-300100-
EASTERN MASSACHUSETTS

CITY           SKY/WX    TMP DP  RH WIND       PRES   REMARKS
BOSTON         PTCLDY    39   9  29 SW7       30.12R
6HR MIN TEMP:  37; 6HR MAX TEMP:  42;

BEVERLY        CLEAR     33  21  61 SE6       30.11R WCI  28
LAWRENCE       CLEAR     36   5  27 S3        30.11S
BEDFORD        CLEAR     34   8  33 S7        30.10R WCI  28
BLUE HILL        N/A     36   5  27 SW9       30.09R WCI  29
NORWOOD        CLEAR     34  20  56 S5        30.12R WCI  30
MARSHFIELD     CLEAR     34  19  55 S6        30.16R WCI  29
PLYMOUTH       CLEAR     32  19  58 S5        30.15R WCI  27
TAUNTON        CLEAR     35  19  52 SW6       30.14R WCI  30
NEW BEDFORD    CLEAR     32  20  61 SW5       30.15R WCI  27
$$

MAZALL-300100-
CAPE COD AND THE ISLANDS

CITY           SKY/WX    TMP DP  RH WIND       PRES   REMARKS
FALMOUTH       CLEAR     30  19  64 SW8       30.16R WCI  23
HYANNIS        CLEAR     33  17  51 S7        30.15R WCI  27
CHATHAM        CLEAR     30  15  53 SE3       30.17R
PROVINCETOWN   CLEAR     30  12  47 S6        30.15R WCI  24
NANTUCKET      CLEAR     29  16  58 SE3       30.17R
MARTHAS VNYRD  CLEAR     29  13  51 SW5       30.17R WCI  24
$$

MAZALL-300100-
CENTRAL AND WESTERN MASSACHUSETTS

CITY           SKY/WX    TMP DP  RH WIND       PRES   REMARKS
WORCESTER      CLEAR     34   1  24 SW5       30.07F WCI  30
6HR MIN TEMP:  34; 6HR MAX TEMP:  39;

FITCHBURG      CLEAR     37   9  31 SW6       30.10S
ORANGE         CLEAR     33   5  30 SW5       30.09S WCI  29
SPRINGFIELD    CLEAR     37   6  27 W6        30.10S
WESTFIELD      CLEAR     34   5  29 CALM      30.11S
NORTH ADAMS    CLEAR     29  17  61 CALM      30.09F
PITTSFIELD     CLEAR     29  10  45 CALM      30.06S
$$

RIZALL-300100-
RHODE ISLAND

CITY           SKY/WX    TMP DP  RH WIND       PRES   REMARKS
PROVIDENCE     CLEAR     34  20  56 S7        30.14R WCI  28
6HR MIN TEMP:  34; 6HR MAX TEMP:  43;

NEWPORT        CLEAR     33  22  63 S7        30.15R WCI  27
BLOCK ISLAND   CLEAR     36  21  55 SW7       30.16R WCI  30
SMITHFIELD     CLEAR     32   3  29 CALM      30.11S
WESTERLY       CLEAR     35  22  58 SW6       30.16S WCI  30
$$

CTZALL-300100-
CONNECTICUT

CITY           SKY/WX    TMP DP  RH WIND       PRES   REMARKS
BRADLEY INTL   PTCLDY    39   6  25 W5        30.12S
6HR MIN TEMP:  38; 6HR MAX TEMP:  45;

HARTFORD       CLEAR     40   5  23 SW7       30.14S
BRIDGEPORT     CLEAR     38  19  46 SW7       30.15F
DANBURY        CLEAR     33  13  43 CALM      30.14S
GROTON         CLEAR     35  22  58 SW8       30.15S WCI  29
NEW HAVEN      PTCLDY    37  22  54 SW3       30.15S
CHESTER        FAIR      36  12  38 SW6       30.14S WCI  31
MERIDEN        CLEAR     33  17  51 CALM      30.14S
WILLIMANTIC    CLEAR     36  10  34 CALM      30.13S
OXFORD         PTCLDY    36   7  30 CALM      30.13S
$$

MEZ002-015-021-024-NHZ003-005-008-011-012-014-VTZ005-008-300100-
NORTHERN NEW ENGLAND

CITY           SKY/WX    TMP DP  RH WIND       PRES   REMARKS
PORTLAND ME    CLEAR     35  23  61 S8        30.08S WCI  29
6HR MIN TEMP:  35; 6HR MAX TEMP:  39;

BANGOR ME      PTCLDY    32  13  45 S8        30.04R WCI  25
CONCORD NH     CLEAR     37   6  27 SW3       30.07F
MANCHESTER NH  PTCLDY    40   4  22 SW3       30.07F
NASHUA NH      CLEAR     33  15  48 CALM      30.10S
PORTSMOUTH NH  CLEAR     37   4  24 CALM      30.08R
JAFFREY NH     CLEAR     27  13  55 CALM      30.06F
KEENE NH       CLEAR     30  12  47 S6        30.09R WCI  24
BURLINGTON VT  CLEAR     37   9  31 S8        30.01F WCI  31
MT. WASHINGTON PTCLDY    14 -11  31 W26         N/A  WCI  -6
$$

NYZ052-076-300100-
EASTERN NEW YORK

CITY           SKY/WX    TMP DP  RH WIND       PRES   REMARKS
ALBANY         PTCLDY    34  10  37 CALM      30.10F
6HR MIN TEMP:  34; 6HR MAX TEMP:  43;

NEW YORK CITY  PTCLDY    40  18  41 S14       30.16S
6HR MIN TEMP:  40; 6HR MAX TEMP:  46;

$$

ANZALL-300100-
MARINE OBSERVATIONS

STATION/POSITION TIME  TEMP    WIND        PRES    VSBY  WAVE
                       AIR SEA DIR/SP/G                  HT/PER
                 (UTC) (F)     (DEG/KT/KT) (MB)    (MI)  (FT/S)
BOSTON BUOY      2350   34 36  180/ 16/ 17 1020.0R         5/10
BUZZARDS BAY     2300          230/ 16/ 18 1021.3R
NANTUCKET SOUND  2350   34 36  160/  6/  8 1021.5R         1/ 5
MASS BAY-STELLWA 2304   34 37  160/ 12/ 16   N/A    1 7/8  7/11
ISLE OF SHOALS   2300   35     190/ 16/ 16 1018.5R
S OF BLOCK IS    2308      37                N/A           4/10
$$

......................KEY.........................
  SKY/WX - SKY CONDITION/PRESENT WEATHER
  TMP    - TEMPERATURE IN FAHRENHEIT
  DWPT   - DEWPOINT IN FAHRENHEIT
  RH     - RELATIVE HUMIDITY IN PERCENT
  WIND   - DIRECTION AND SPEED IN MPH
  PRES   - MEAN SEA LEVEL PRESSURE IN INCHES OF HG
  WCI    - WIND CHILL INDEX
  VSB    - VISIBILITY IN MILES
  HX     - HEAT INDEX
  TC     - TEMPERATURE IN CELSIUS
  VRB    - VARIABLE WIND DIRECTION
  N/A    - NOT AVAILABLE


USA.gov is the U.S. government's official web portal to all federal, state and local government web resources and services.